Estación Meteorológica Peña el Pijo (Robertgarden) [ 12/14/19 08:44:08 CET ]

Fecha Hora Presion(HPa) Temp (°C) Humedad % Rocio (°C) Viento ( m/s) Direccion Lluvia 1Hora(mm) Lluvia 24H(mm) LLuvia Total(mm)
2019-Dec-12 01:09:08 1012.800 - - - - S     39.88
2019-Dec-12 02:10:33 1012.200 - - - - S     39.88
2019-Dec-12 03:14:52 1011.600 - - - - S     39.88
2019-Dec-12 04:11:58 1011.600 - - - - S     39.88
2019-Dec-12 05:10:39 1011.300 - - - - S     39.88
2019-Dec-12 06:09:55 1010.400 - - - - S     39.88
2019-Dec-12 07:09:25 1009.700 - - - - S     39.88
2019-Dec-12 08:09:39 1010.100 - - - - S     39.88
2019-Dec-12 09:09:34 1010.100 - - - - S     39.88
2019-Dec-12 10:09:07 1009.700 - - - - S     39.88
2019-Dec-12 11:09:00 1010.500 - - - - S     39.88
2019-Dec-12 12:09:13 1010.400 - - - - S     39.88
2019-Dec-12 13:09:07 1009.300 - - - - S     39.88
2019-Dec-12 14:09:30 1007.800 - - - - S     39.88
2019-Dec-12 15:09:36 1006.700 - - - - S     39.88
2019-Dec-12 16:09:46 1006.500 - - - - S     39.88
2019-Dec-12 17:09:19 1006.500 - - - - S     39.88
2019-Dec-12 18:09:43 1005.800 - - - - S     39.88
2019-Dec-12 19:09:15 1005.000 - - - - S     39.88
2019-Dec-12 20:09:15 1004.600 - - - - S     39.88
2019-Dec-12 21:09:10 1003.500 - - - - S     39.88
2019-Dec-12 22:08:50 1004.000 - - - - S     39.88
2019-Dec-12 23:09:14 1004.300 - - - - S     39.88

Temperatura Máxima:    Temperatura Mínima:
Presión Máxima:1012.800 Hpa    Presión Mínima:1003.500 Hpa


Volver